星链-31465 (STARLINK-31465 )

导读 | 星芒AI

STARLINK-31465 是 SpaceX Starlink 卫星互联网项目中的一颗低轨卫星,属于第6批部署的星链卫星之一。该卫星于2023年发射,运行在约550公里高度的近地轨道,旨在为全球用户提供高速互联网服务。作为星链星座的一部分,STARLINK-31465 采用先进通信技术,支持宽带连接,并具备自动避障功能,以确保轨道安全。该卫星的运行有助于提升偏远地区的网络覆盖,推动全球数字接入的普及。

基本信息
目录编号:
59012
目录名称:
STARLINK-31465
国际标识:
2024-036Q
轨道中心:
EARTH
卫星名称:
星链-31465
卫星全名:
星链-31465 (STARLINK-31465 )
卫星状态:
在轨 (已飞行666 天)
发射日期:
2024-02-23 UTC
国别 :
美国 (US)
星等 :
--
轨道信息
数据来源 国际轨道数据
星历时间: 2025-12-19T23:30:14+0800
9小时前
查看轨道信息
半长轴: 6853.366km
偏心率: 0.0000863
轨道倾角: 53.159°
近地点辐角 84.508°
升交点赤经 90.242°
平近点角 275.602°
近地点: 474.637km
远地点: 475.821km
周期: 94.106分钟
每日圈数: 15.301955
详细信息
固有亮度:
5
最大亮度:
0.3
卫星平台:
Starlink v2.0 mini
覆盖范围:
全球
运营商:
太空探索技术公司
运营商所在国:
美国
制造商(研发单位):
太空探索技术公司
制造商所在国:
美国
使用方式:
暂无
卫星简介
星链(Starlink)计划是由太空探索技术公司(SpaceX)提出的一个巨型低轨卫星互联网星座项目,计划在2019年至2024年间在太空搭建由约1.2万颗卫星组成的“星链”网络,其中1584颗将部署在地球上空550千米处的近地轨道,并从2020年开始工作。该卫星仍在工作。
2D轨道图
3D轨道图
轨道高度分析图
轨道倾角分析图
轨道综合分析图
查看轨道综合分析图